| time (UTC) | temp F | wind direction | speed knots | gust knots | rain 1hr in | rain 24hr in | rain mn in | humidity % | barometer mb |
| 20260503220212 | 51 | 306 | 2.6 | 7.8 | 0.00 | 0.00 | 0.00 | 38 | |
| 20260503215712 | 51 | 300 | 2.6 | 11.3 | 0.00 | 0.00 | 0.00 | 37 | |
| 20260503215212 | 51 | 296 | 4.3 | 13.9 | 0.00 | 0.00 | 0.00 | 37 | |
| 20260503214712 | 50 | 307 | 4.3 | 11.3 | 0.00 | 0.00 | 0.00 | 36 | |
| 20260503214212 | 51 | 272 | 5.2 | 7.0 | 0.00 | 0.00 | 0.00 | 38 | |
| 20260503213712 | 51 | 306 | 4.3 | 10.4 | 0.00 | 0.00 | 0.00 | 38 | |
| 20260503213212 | 51 | 322 | 4.3 | 10.4 | 0.00 | 0.00 | 0.00 | 37 | |
| 20260503212712 | 51 | 319 | 3.5 | 8.7 | 0.00 | 0.00 | 0.00 | 39 | |
| 20260503212212 | 50 | 337 | 3.5 | 8.7 | 0.00 | 0.00 | 0.00 | 39 | |
| 20260503211712 | 51 | 324 | 3.5 | 9.6 | 0.00 | 0.00 | 0.00 | 39 | |
| 20260503211212 | 51 | 255 | 7.0 | 11.3 | 0.00 | 0.00 | 0.00 | 37 | |
| 20260503210712 | 51 | 307 | 7.8 | 11.3 | 0.00 | 0.00 | 0.00 | 38 | |
| 20260503210212 | 50 | 253 | 2.6 | 10.4 | 0.00 | 0.00 | 0.00 | 39 | |
| 20260503205712 | 50 | 303 | 6.1 | 12.2 | 0.00 | 0.00 | 0.00 | 40 | |
| 20260503205212 | 50 | 223 | 4.3 | 10.4 | 0.00 | 0.00 | 0.00 | 39 | |
| 20260503204712 | 50 | 278 | 7.8 | 10.4 | 0.00 | 0.00 | 0.00 | 40 | |
| 20260503204212 | 50 | 274 | 4.3 | 11.3 | 0.00 | 0.00 | 0.00 | 39 | |
| 20260503203712 | 50 | 250 | 5.2 | 12.2 | 0.00 | 0.00 | 0.00 | 39 | |
| 20260503203212 | 50 | 240 | 7.0 | 9.6 | 0.00 | 0.00 | 0.00 | 40 | |
| 20260503202712 | 49 | 272 | 7.8 | 10.4 | 0.00 | 0.00 | 0.00 | 41 | |
| 20260503202212 | 49 | 303 | 3.5 | 14.8 | 0.00 | 0.00 | 0.00 | 38 | |
| 20260503201712 | 49 | 322 | 8.7 | 13.0 | 0.00 | 0.00 | 0.00 | 43 | |
| 20260503201212 | 49 | 296 | 8.7 | 10.4 | 0.00 | 0.00 | 0.00 | 40 | |
| 20260503200712 | 49 | 306 | 5.2 | 13.0 | 0.00 | 0.00 | 0.00 | 43 | |
| 20260503200212 | 49 | 296 | 5.2 | 12.2 | 0.00 | 0.00 | 0.00 | 40 | |
| 20260503195712 | 48 | 271 | 7.0 | 13.0 | 0.00 | 0.00 | 0.00 | 41 | |
| 20260503195212 | 48 | 302 | 7.8 | 15.6 | 0.00 | 0.00 | 0.00 | 40 | |
| 20260503194712 | 49 | 288 | 6.1 | 13.0 | 0.00 | 0.00 | 0.00 | 40 | |
| 20260503194212 | 49 | 313 | 5.2 | 15.6 | 0.00 | 0.00 | 0.00 | 39 | |
| 20260503193712 | 49 | 331 | 8.7 | 10.4 | 0.00 | 0.00 | 0.00 | 43 | |
| 20260503193212 | 48 | 289 | 0.9 | 9.6 | 0.00 | 0.00 | 0.00 | 44 | |
| 20260503192712 | 48 | 265 | 5.2 | 10.4 | 0.00 | 0.00 | 0.00 | 44 | |
| 20260503192212 | 48 | 299 | 7.8 | 14.8 | 0.00 | 0.00 | 0.00 | 42 | |
| 20260503191712 | 48 | 268 | 4.3 | 9.6 | 0.00 | 0.00 | 0.00 | 47 | |
| 20260503191212 | 47 | 324 | 7.0 | 7.8 | 0.00 | 0.00 | 0.00 | 44 | |
| 20260503190712 | 47 | 293 | 5.2 | 11.3 | 0.00 | 0.00 | 0.00 | 43 | |
| 20260503190212 | 47 | 299 | 6.1 | 13.0 | 0.00 | 0.00 | 0.00 | 42 | |
| 20260503185712 | 47 | 357 | 7.0 | 10.4 | 0.00 | 0.00 | 0.00 | 41 | |
| 20260503185212 | 47 | 358 | 3.5 | 7.8 | 0.00 | 0.00 | 0.00 | 44 | |
| 20260503184713 | 47 | 246 | 7.0 | 7.8 | 0.00 | 0.00 | 0.00 | 46 | |
| 20260503184213 | 46 | 322 | 4.3 | 12.2 | 0.00 | 0.00 | 0.00 | 45 | |
| 20260503183713 | 45 | 289 | 9.6 | 12.2 | 0.00 | 0.00 | 0.00 | 47 | |
| 20260503183213 | 45 | 341 | 11.3 | 13.9 | 0.00 | 0.00 | 0.00 | 42 | |
| 20260503182713 | 46 | 291 | 8.7 | 13.9 | 0.00 | 0.00 | 0.00 | 42 | |
| 20260503182213 | 46 | 310 | 4.3 | 10.4 | 0.00 | 0.00 | 0.00 | 47 | |
| 20260503181713 | 46 | 309 | 5.2 | 9.6 | 0.00 | 0.00 | 0.00 | 45 | |
| 20260503181213 | 46 | 270 | 5.2 | 8.7 | 0.00 | 0.00 | 0.00 | 46 | |
| 20260503180713 | 46 | 14 | 5.2 | 13.0 | 0.00 | 0.00 | 0.00 | 45 | |
| 20260503180213 | 46 | 340 | 6.1 | 15.6 | 0.00 | 0.00 | 0.00 | 46 | |
| 20260503175713 | 46 | 326 | 3.5 | 10.4 | 0.00 | 0.00 | 0.00 | 44 | |
| 20260503175213 | 46 | 344 | 3.5 | 8.7 | 0.00 | 0.00 | 0.00 | 49 | |
| 20260503174713 | 45 | 285 | 5.2 | 10.4 | 0.00 | 0.00 | 0.00 | 50 | |
| 20260503174213 | 45 | 337 | 7.8 | 13.0 | 0.00 | 0.00 | 0.00 | 47 | |
| 20260503173713 | 44 | 309 | 4.3 | 8.7 | 0.00 | 0.00 | 0.00 | 47 | |
| 20260503173213 | 43 | 60 | 6.1 | 11.3 | 0.00 | 0.00 | 0.00 | 43 | |
| 20260503172713 | 44 | 350 | 7.0 | 11.3 | 0.00 | 0.00 | 0.00 | 51 | |
| 20260503172213 | 44 | 293 | 5.2 | 13.0 | 0.00 | 0.00 | 0.00 | 49 | |
| 20260503171713 | 44 | 15 | 1.7 | 9.6 | 0.00 | 0.00 | 0.00 | 49 | |
| 20260503171213 | 44 | 319 | 7.0 | 11.3 | 0.00 | 0.00 | 0.00 | 51 | |
| 20260503170713 | 43 | 317 | 7.0 | 11.3 | 0.00 | 0.00 | 0.00 | 50 | |
| 20260503170213 | 43 | 262 | 3.5 | 8.7 | 0.00 | 0.00 | 0.00 | 49 | |
| 20260503160213 | 42 | 295 | 7.8 | 13.9 | 0.00 | 0.00 | 0.00 | 52 | |
| 20260503150713 | 39 | 316 | 7.0 | 14.8 | 0.00 | 0.00 | 0.00 | 55 | |
| 20260503150213 | 39 | 343 | 6.1 | 11.3 | 0.00 | 0.00 | 0.00 | 56 | |
| 20260503140213 | 37 | 274 | 5.2 | 13.0 | 0.00 | 0.00 | 0.00 | 64 | |
| 20260503131213 | 35 | 306 | 7.8 | 11.3 | 0.00 | 0.00 | 0.00 | 73 | |
| 20260503130714 | 35 | 322 | 4.3 | 11.3 | 0.00 | 0.00 | 0.00 | 72 | |
| 20260503130214 | 35 | 300 | 1.7 | 9.6 | 0.00 | 0.00 | 0.00 | 76 | |
| 20260503120214 | 33 | 282 | 3.5 | 8.7 | 0.00 | 0.00 | 0.00 | 90 | |
| 20260503110714 | 31 | 286 | 5.2 | 10.4 | 0.00 | 0.00 | 0.00 | 93 | |
| 20260503110214 | 31 | 268 | 2.6 | 7.8 | 0.00 | 0.00 | 0.00 | 93 | |
| 20260503100214 | 31 | 320 | 4.3 | 7.0 | 0.00 | 0.00 | 0.00 | 94 | |
| 20260503090215 | 31 | 296 | 3.5 | 8.7 | 0.00 | 0.00 | 0.00 | 94 | |
| 20260503081214 | 32 | 329 | 5.2 | 7.8 | 0.00 | 0.00 | 0.00 | 93 | |
| 20260503080714 | 32 | 307 | 4.3 | 8.7 | 0.00 | 0.00 | 0.00 | 94 | |
| 20260503080214 | 32 | 296 | 4.3 | 9.6 | 0.00 | 0.00 | 0.00 | 95 | |
| 20260503072715 | 32 | 306 | 4.3 | 11.3 | 0.00 | 0.00 | 0.00 | 93 | |
| 20260503072215 | 33 | 296 | 4.3 | 7.0 | 0.00 | 0.00 | 0.00 | 92 | |
| 20260503071715 | 33 | 320 | 4.3 | 7.0 | 0.00 | 0.00 | 0.00 | 91 | |
| 20260503071215 | 33 | 274 | 5.2 | 8.7 | 0.00 | 0.00 | 0.00 | 91 | |
| 20260503070715 | 33 | 289 | 3.5 | 7.0 | 0.00 | 0.00 | 0.00 | 91 | |
| 20260503070215 | 33 | 277 | 1.7 | 7.8 | 0.00 | 0.00 | 0.00 | 90 | |
| 20260503060215 | 33 | 288 | 4.3 | 6.1 | 0.00 | 0.00 | 0.00 | 88 | |
| 20260503054715 | 33 | 338 | 6.1 | 9.6 | 0.00 | 0.00 | 0.00 | 88 | |
| 20260503054215 | 33 | 312 | 3.5 | 7.8 | 0.00 | 0.00 | 0.00 | 87 | |
| 20260503053715 | 33 | 299 | 5.2 | 8.7 | 0.00 | 0.00 | 0.00 | 87 | |
| 20260503053215 | 33 | 312 | 3.5 | 7.8 | 0.00 | 0.00 | 0.00 | 86 | |
| 20260503052715 | 33 | 313 | 2.6 | 8.7 | 0.00 | 0.00 | 0.00 | 86 | |
| 20260503052215 | 33 | 307 | 3.5 | 6.1 | 0.00 | 0.00 | 0.00 | 85 | |
| 20260503051715 | 33 | 288 | 1.7 | 7.0 | 0.00 | 0.00 | 0.00 | 86 | |
| 20260503051215 | 33 | 319 | 3.5 | 7.0 | 0.00 | 0.00 | 0.00 | 87 | |
| 20260503050715 | 33 | 320 | 2.6 | 7.8 | 0.00 | 0.00 | 0.00 | 87 | |
| 20260503050215 | 33 | 313 | 3.5 | 6.1 | 0.00 | 0.00 | 0.00 | 87 | |
| 20260503045715 | 33 | 330 | 2.6 | 6.1 | 0.00 | 0.00 | 0.00 | 87 | |
| 20260503045215 | 33 | 322 | 1.7 | 3.5 | 0.00 | 0.00 | 0.00 | 85 | |
| 20260503044715 | 34 | 274 | 0.0 | 3.5 | 0.00 | 0.00 | 0.00 | 85 | |
| 20260503044215 | 33 | 350 | 2.6 | 7.0 | 0.00 | 0.00 | 0.00 | 87 | |
| 20260503043715 | 33 | 358 | 4.3 | 8.7 | 0.00 | 0.00 | 0.00 | 87 | |
| 20260503043215 | 34 | 320 | 5.2 | 7.8 | 0.00 | 0.00 | 0.00 | 86 | |
| 20260503042715 | 34 | 315 | 3.5 | 6.1 | 0.00 | 0.00 | 0.00 | 84 | |
| 20260503042215 | 34 | 326 | 5.2 | 7.8 | 0.00 | 0.00 | 0.00 | 85 | |
| 20260503041715 | 34 | 312 | 4.3 | 9.6 | 0.00 | 0.00 | 0.00 | 85 | |
| 20260503041215 | 34 | 312 | 4.3 | 9.6 | 0.00 | 0.00 | 0.00 | 83 | |
| 20260503040715 | 34 | 319 | 6.1 | 7.0 | 0.00 | 0.00 | 0.00 | 82 | |
| 20260503040215 | 34 | 357 | 3.5 | 7.0 | 0.00 | 0.00 | 0.00 | 82 | |
| 20260503035715 | 34 | 295 | 4.3 | 7.0 | 0.00 | 0.00 | 0.00 | 82 | |
| 20260503035215 | 34 | 312 | 3.5 | 7.0 | 0.00 | 0.00 | 0.00 | 82 | |
| 20260503034715 | 35 | 336 | 5.2 | 9.6 | 0.00 | 0.00 | 0.00 | 81 | |
| 20260503034215 | 35 | 323 | 5.2 | 7.0 | 0.00 | 0.00 | 0.00 | 80 | |
| 20260503033715 | 35 | 315 | 4.3 | 6.1 | 0.00 | 0.00 | 0.00 | 80 | |
| 20260503033215 | 35 | 345 | 3.5 | 7.8 | 0.00 | 0.00 | 0.00 | 80 | |
| 20260503032716 | 35 | 289 | 2.6 | 8.7 | 0.00 | 0.00 | 0.00 | 80 | |
| 20260503032215 | 35 | 324 | 2.6 | 5.2 | 0.00 | 0.00 | 0.00 | 79 | |
| 20260503031715 | 35 | 324 | 2.6 | 9.6 | 0.00 | 0.00 | 0.00 | 79 | |
| 20260503031215 | 35 | 322 | 8.7 | 8.7 | 0.00 | 0.00 | 0.00 | 78 | |
| 20260503030715 | 35 | 334 | 3.5 | 7.8 | 0.00 | 0.00 | 0.00 | 78 | |
| 20260503030215 | 35 | 324 | 5.2 | 9.6 | 0.00 | 0.00 | 0.00 | 78 | |
| 20260503025715 | 35 | 327 | 3.5 | 9.6 | 0.00 | 0.00 | 0.00 | 77 | |
| 20260503025215 | 35 | 12 | 3.5 | 7.0 | 0.00 | 0.00 | 0.00 | 76 | |
| 20260503024715 | 35 | 358 | 6.1 | 10.4 | 0.00 | 0.00 | 0.00 | 77 | |
| 20260503024215 | 35 | 336 | 7.0 | 13.9 | 0.00 | 0.00 | 0.00 | 76 | |
| 20260503023715 | 36 | 4 | 10.4 | 10.4 | 0.00 | 0.00 | 0.00 | 76 | |
| 20260503023216 | 36 | 322 | 5.2 | 8.7 | 0.00 | 0.00 | 0.00 | 74 | |
| 20260503022715 | 36 | 343 | 2.6 | 11.3 | 0.00 | 0.00 | 0.00 | 75 | |
| 20260503022215 | 36 | 305 | 9.6 | 11.3 | 0.00 | 0.00 | 0.00 | 74 | |
| 20260503021716 | 36 | 305 | 3.5 | 9.6 | 0.00 | 0.00 | 0.00 | 73 | |
| 20260503021216 | 37 | 330 | 3.5 | 7.0 | 0.00 | 0.00 | 0.00 | 73 | |
| 20260503020716 | 37 | 316 | 4.3 | 8.7 | 0.00 | 0.00 | 0.00 | 73 | |
| 20260503020216 | 37 | 338 | 4.3 | 8.7 | 0.00 | 0.00 | 0.00 | 72 | |
| 20260503015716 | 37 | 322 | 4.3 | 8.7 | 0.00 | 0.00 | 0.00 | 72 | |
| 20260503015216 | 37 | 317 | 4.3 | 10.4 | 0.00 | 0.00 | 0.00 | 72 | |
| 20260503014716 | 37 | 310 | 3.5 | 12.2 | 0.00 | 0.00 | 0.00 | 71 | |
| 20260503014216 | 37 | 330 | 7.8 | 9.6 | 0.00 | 0.00 | 0.00 | 70 | |
| 20260503013716 | 37 | 344 | 8.7 | 13.9 | 0.00 | 0.00 | 0.00 | 69 | |
| 20260503013216 | 37 | 320 | 7.0 | 9.6 | 0.00 | 0.00 | 0.00 | 69 | |
| 20260503012716 | 37 | 324 | 7.8 | 13.0 | 0.00 | 0.00 | 0.00 | 68 | |
| 20260503012216 | 38 | 323 | 2.6 | 8.7 | 0.00 | 0.00 | 0.00 | 67 | |
| 20260503011716 | 38 | 334 | 6.1 | 8.7 | 0.00 | 0.00 | 0.00 | 66 | |
| 20260503011216 | 38 | 307 | 5.2 | 6.1 | 0.00 | 0.00 | 0.00 | 65 | |
| 20260503010716 | 38 | 329 | 5.2 | 10.4 | 0.00 | 0.00 | 0.00 | 64 | |
| 20260503010216 | 38 | 323 | 3.5 | 8.7 | 0.00 | 0.00 | 0.00 | 63 | |
| 20260503005716 | 38 | 303 | 2.6 | 9.6 | 0.00 | 0.00 | 0.00 | 63 | |
| 20260503005216 | 38 | 355 | 6.1 | 10.4 | 0.00 | 0.00 | 0.00 | 62 | |
| 20260503004716 | 39 | 303 | 6.1 | 7.8 | 0.00 | 0.00 | 0.00 | 61 | |
| 20260503004216 | 39 | 306 | 5.2 | 10.4 | 0.00 | 0.00 | 0.00 | 61 | |
| 20260503003716 | 39 | 315 | 1.7 | 8.7 | 0.00 | 0.00 | 0.00 | 60 | |
| 20260503003216 | 39 | 338 | 4.3 | 9.6 | 0.00 | 0.00 | 0.00 | 59 | |
| 20260503002716 | 39 | 341 | 7.8 | 14.8 | 0.00 | 0.00 | 0.00 | 58 | |
| 20260503002216 | 39 | 355 | 4.3 | 12.2 | 0.00 | 0.00 | 0.00 | 57 | |
| 20260503001716 | 40 | 305 | 6.1 | 9.6 | 0.00 | 0.00 | 0.00 | 56 | |
| 20260503001216 | 40 | 293 | 7.8 | 8.7 | 0.00 | 0.00 | 0.00 | 56 | |
| 20260503000716 | 40 | 323 | 5.2 | 6.1 | 0.00 | 0.00 | 0.00 | 55 | |
| 20260503000218 | 40 | 317 | 4.3 | 9.6 | 0.00 | 0.00 | 0.00 | 54 | |
| 20260502235716 | 41 | 298 | 7.0 | 8.7 | 0.00 | 0.00 | 0.00 | 54 | |
| 20260502235216 | 41 | 331 | 3.5 | 12.2 | 0.00 | 0.00 | 0.00 | 54 | |
| 20260502234716 | 41 | 334 | 4.3 | 11.3 | 0.00 | 0.00 | 0.00 | 54 | |
| 20260502234216 | 41 | 305 | 5.2 | 12.2 | 0.00 | 0.00 | 0.00 | 53 | |
| 20260502233716 | 41 | 291 | 1.7 | 11.3 | 0.00 | 0.00 | 0.00 | 54 | |
| 20260502233216 | 41 | 299 | 4.3 | 11.3 | 0.00 | 0.00 | 0.00 | 53 | |
| 20260502232716 | 42 | 324 | 3.5 | 8.7 | 0.00 | 0.00 | 0.00 | 53 | |
| 20260502232216 | 42 | 292 | 6.1 | 7.8 | 0.00 | 0.00 | 0.00 | 53 | |
| 20260502231716 | 42 | 277 | 4.3 | 11.3 | 0.00 | 0.00 | 0.00 | 53 | |
| 20260502231216 | 42 | 284 | 5.2 | 9.6 | 0.00 | 0.00 | 0.00 | 52 | |
| 20260502230716 | 42 | 284 | 2.6 | 9.6 | 0.00 | 0.00 | 0.00 | 52 | |
| 20260502230216 | 42 | 299 | 5.2 | 13.0 | 0.00 | 0.00 | 0.00 | 51 | |
| 20260502225716 | 42 | 307 | 7.8 | 11.3 | 0.00 | 0.00 | 0.00 | 51 | |
| 20260502225216 | 42 | 306 | 7.8 | 12.2 | 0.00 | 0.00 | 0.00 | 51 | |
| 20260502224716 | 42 | 303 | 4.3 | 13.9 | 0.00 | 0.00 | 0.00 | 50 | |
| 20260502224216 | 42 | 330 | 5.2 | 12.2 | 0.00 | 0.00 | 0.00 | 50 | |
| 20260502223307 | 43 | 322 | 7.8 | 9.6 | 0.00 | 0.02 | 0.00 | 51 | |
| 20260502222807 | 43 | 236 | 2.6 | 9.6 | 0.00 | 0.02 | 0.00 | 51 | |
| 20260502222307 | 43 | 299 | 5.2 | 15.6 | 0.00 | 0.02 | 0.00 | 50 | |
| 20260502221807 | 43 | 285 | 0.9 | 8.7 | 0.00 | 0.02 | 0.00 | 51 | |
| 20260502221307 | 43 | 299 | 4.3 | 7.0 | 0.00 | 0.02 | 0.00 | 51 | |
| 20260502220807 | 43 | 317 | 2.6 | 9.6 | 0.00 | 0.02 | 0.00 | 52 |